"read_dt","SO2 (ppb)","flags","PMT voltage (V)","lamp voltage (V)","lamp intensity (Hz)","internal temp (C)","react chamber temp (C)","sample flow (l/min)","pres (mmHg)","SO2 bkg (ppb)","SO2 coefficient"
2016-09-09 00:00:00,1951E-3,5C000400,-0724,0824,12282,019.8,045.3,0.269,764.4,01.16,0.508
2016-09-09 00:01:00,2025E-3,5C000400,-0724,0823,12190,019.8,045.3,0.269,764.4,01.16,0.508
2016-09-09 00:02:00,1867E-3,5C000400,-0724,0824,12131,019.8,045.3,0.269,764.5,01.16,0.508
2016-09-09 00:03:00,2081E-3,5C000400,-0724,0824,12223,019.8,045.3,0.268,764.5,01.16,0.508
2016-09-09 00:04:00,1899E-3,5C000400,-0724,0824,12264,019.8,045.3,0.269,764.5,01.16,0.508
2016-09-09 00:05:00,2070E-3,5C000400,-0724,0824,12322,019.8,045.3,0.269,764.5,01.16,0.508
2016-09-09 00:06:00,2097E-3,5C000400,-0724,0824,12273,019.8,045.3,0.269,764.5,01.16,0.508
2016-09-09 00:07:00,2015E-3,5C000400,-0724,0824,12305,019.8,045.3,0.268,764.5,01.16,0.508
2016-09-09 00:08:00,2067E-3,5C000400,-0724,0824,12315,019.8,045.3,0.269,764.5,01.16,0.508
2016-09-09 00:09:00,1945E-3,5C000400,-0724,0824,12228,019.8,045.3,0.269,764.5,01.16,0.508
2016-09-09 00:10:00,1940E-3,5C000400,-0724,0824,12292,019.8,045.3,0.269,764.5,01.16,0.508
2016-09-09 00:11:00,1988E-3,5C000400,-0724,0824,12190,019.8,045.3,0.269,764.5,01.16,0.508
2016-09-09 00:12:00,1920E-3,5C000400,-0724,0824,12281,019.8,045.3,0.269,764.5,01.16,0.508
2016-09-09 00:13:00,2005E-3,5C000400,-0724,0825,12210,019.8,045.3,0.269,764.5,01.16,0.508
2016-09-09 00:14:00,1934E-3,5C000400,-0724,0824,12331,019.8,045.3,0.268,764.6,01.16,0.508
2016-09-09 00:15:00,1813E-3,5C000400,-0724,0824,12237,019.8,045.3,0.269,764.6,01.16,0.508
2016-09-09 00:16:00,1880E-3,5C000400,-0724,0825,12124,019.8,045.3,0.268,764.5,01.16,0.508
2016-09-09 00:17:00,1970E-3,5C000400,-0724,0824,12288,019.8,045.2,0.269,764.5,01.16,0.508
2016-09-09 00:18:00,1880E-3,5C000400,-0724,0824,12206,019.8,045.3,0.269,764.5,01.16,0.508
2016-09-09 00:19:00,1982E-3,5C000400,-0724,0824,12196,019.8,045.3,0.269,764.6,01.16,0.508
2016-09-09 00:20:00,1871E-3,5C000400,-0724,0824,12216,019.8,045.3,0.269,764.6,01.16,0.508
2016-09-09 00:21:00,2047E-3,5C000400,-0724,0823,12077,019.8,045.3,0.269,764.5,01.16,0.508
2016-09-09 00:22:00,1880E-3,5C000400,-0724,0824,12203,019.8,045.3,0.269,764.6,01.16,0.508
2016-09-09 00:23:00,2041E-3,5C000400,-0724,0824,12272,019.8,045.3,0.269,764.6,01.16,0.508
2016-09-09 00:24:00,1924E-3,5C000400,-0724,0824,11133,019.8,045.3,0.269,764.6,01.16,0.508
2016-09-09 00:25:00,1949E-3,5C000400,-0724,0824,12244,019.8,045.3,0.268,764.6,01.16,0.508
2016-09-09 00:26:00,1958E-3,5C000400,-0724,0824,12249,019.8,045.3,0.269,764.7,01.16,0.508
2016-09-09 00:27:00,2004E-3,5C000400,-0724,0823,12283,019.8,045.3,0.268,764.7,01.16,0.508
2016-09-09 00:28:00,2001E-3,5C000400,-0724,0824,12199,019.8,045.3,0.269,764.6,01.16,0.508
2016-09-09 00:29:00,1957E-3,5C000400,-0724,0824,12186,019.8,045.3,0.269,764.7,01.16,0.508
2016-09-09 00:30:00,2018E-3,5C000400,-0724,0825,12264,019.8,045.3,0.269,764.7,01.16,0.508
2016-09-09 00:31:00,2013E-3,5C000400,-0724,0823,12240,019.8,045.3,0.269,764.7,01.16,0.508
2016-09-09 00:32:00,2085E-3,5C000400,-0724,0825,12435,019.8,045.3,0.269,764.7,01.16,0.508
2016-09-09 00:33:00,2062E-3,5C000400,-0724,0824,12323,019.8,045.3,0.269,764.7,01.16,0.508
2016-09-09 00:34:00,1970E-3,5C000400,-0724,0824,12323,019.8,045.3,0.269,764.7,01.16,0.508
2016-09-09 00:35:00,1996E-3,5C000400,-0724,0824,12208,019.8,045.3,0.269,764.7,01.16,0.508
2016-09-09 00:36:00,1976E-3,5C000400,-0724,0824,12084,019.8,045.3,0.269,764.7,01.16,0.508
2016-09-09 00:37:00,1969E-3,5C000400,-0724,0825,12402,019.8,045.3,0.269,764.7,01.16,0.508
2016-09-09 00:38:00,1950E-3,5C000400,-0724,0824,12255,019.7,045.3,0.269,764.7,01.16,0.508
2016-09-09 00:39:00,1885E-3,5C000400,-0724,0824,12295,019.8,045.3,0.269,764.8,01.16,0.508
2016-09-09 00:40:00,1940E-3,5C000400,-0724,0824,12183,019.8,045.3,0.269,764.7,01.16,0.508
2016-09-09 00:41:00,1824E-3,5C000400,-0724,0825,12203,019.8,045.3,0.269,764.8,01.16,0.508
2016-09-09 00:42:00,1975E-3,5C000400,-0724,0825,12335,019.8,045.3,0.269,764.7,01.16,0.508
2016-09-09 00:43:00,1957E-3,5C000400,-0724,0824,12261,019.8,045.3,0.269,764.7,01.16,0.508
2016-09-09 00:44:00,1943E-3,5C000400,-0724,0825,12249,019.8,045.3,0.268,764.7,01.16,0.508
2016-09-09 00:45:00,1897E-3,5C000400,-0724,0824,12092,019.8,045.3,0.269,764.8,01.16,0.508
2016-09-09 00:46:00,1920E-3,5C000400,-0724,0824,12099,019.8,045.3,0.269,764.8,01.16,0.508
2016-09-09 00:47:00,1913E-3,5C000400,-0724,0824,12293,019.8,045.3,0.269,764.7,01.16,0.508
2016-09-09 00:48:00,1928E-3,5C000400,-0724,0823,12259,019.8,045.3,0.268,764.8,01.16,0.508
2016-09-09 00:49:00,1993E-3,5C000400,-0724,0824,12302,019.8,045.3,0.269,764.8,01.16,0.508
2016-09-09 00:50:00,2010E-3,5C000400,-0724,0824,12186,019.8,045.3,0.268,764.8,01.16,0.508
2016-09-09 00:51:00,1952E-3,5C000400,-0724,0824,12262,019.8,045.3,0.269,764.8,01.16,0.508
2016-09-09 00:52:00,2082E-3,5C000400,-0724,0823,12280,019.8,045.3,0.268,764.8,01.16,0.508
2016-09-09 00:53:00,2079E-3,5C000400,-0724,0823,12295,019.8,045.3,0.269,764.8,01.16,0.508
2016-09-09 00:54:00,1753E-3,5C000400,-0724,0824,12264,019.8,045.3,0.268,764.9,01.16,0.508
2016-09-09 00:55:00,1928E-3,5C000400,-0724,0824,12367,019.8,045.3,0.269,764.8,01.16,0.508
2016-09-09 00:56:00,1995E-3,5C000400,-0724,0824,12299,019.8,045.3,0.268,764.9,01.16,0.508
2016-09-09 00:57:00,1957E-3,5C000400,-0724,0825,12266,019.8,045.3,0.269,764.9,01.16,0.508
2016-09-09 00:58:00,1930E-3,5C000400,-0724,0824,12242,019.8,045.3,0.268,764.9,01.16,0.508
2016-09-09 00:59:00,2062E-3,5C000400,-0724,0824,12195,019.8,045.3,0.269,764.9,01.16,0.508
2016-09-09 01:00:00,1933E-3,5C000400,-0724,0824,12281,019.8,045.3,0.268,764.9,01.16,0.508
2016-09-09 01:01:00,1860E-3,5C000400,-0724,0823,12346,019.8,045.3,0.269,764.9,01.16,0.508
2016-09-09 01:02:00,1930E-3,5C000400,-0724,0824,12182,019.8,045.3,0.268,764.9,01.16,0.508
2016-09-09 01:03:00,1863E-3,5C000400,-0724,0824,12344,019.8,045.3,0.269,764.9,01.16,0.508
2016-09-09 01:04:00,2035E-3,5C000400,-0724,0825,11967,019.8,045.3,0.268,764.9,01.16,0.508
2016-09-09 01:05:00,1827E-3,5C000400,-0724,0824,12287,019.8,045.3,0.269,764.9,01.16,0.508
2016-09-09 01:06:00,1836E-3,5C000400,-0724,0823,12308,019.7,045.3,0.268,764.9,01.16,0.508
2016-09-09 01:07:00,1971E-3,5C000400,-0724,0824,12176,019.8,045.3,0.269,764.9,01.16,0.508
2016-09-09 01:08:00,1898E-3,5C000400,-0724,0824,12278,019.7,045.3,0.268,765.0,01.16,0.508
2016-09-09 01:09:00,1960E-3,5C000400,-0724,0824,12393,019.8,045.3,0.269,764.9,01.16,0.508
2016-09-09 01:10:00,1991E-3,5C000400,-0724,0824,12233,019.8,045.3,0.269,764.9,01.16,0.508
2016-09-09 01:11:00,1972E-3,5C000400,-0724,0824,12220,019.8,045.3,0.269,764.9,01.16,0.508
2016-09-09 01:12:00,2022E-3,5C000400,-0724,0824,12205,019.8,045.3,0.269,764.9,01.16,0.508
2016-09-09 01:13:00,1923E-3,5C000400,-0724,0824,12295,019.8,045.3,0.269,764.9,01.16,0.508
2016-09-09 01:14:00,1884E-3,5C000400,-0724,0824,12179,019.8,045.3,0.269,764.9,01.16,0.508
2016-09-09 01:15:00,1965E-3,5C000400,-0724,0824,12355,019.8,045.3,0.269,764.9,01.16,0.508
2016-09-09 01:16:00,2009E-3,5C000400,-0724,0824,12363,019.8,045.3,0.269,765.0,01.16,0.508
2016-09-09 01:17:00,1968E-3,5C000400,-0724,0825,12175,019.8,045.3,0.268,765.0,01.16,0.508
2016-09-09 01:18:00,1905E-3,5C000400,-0724,0824,12277,019.8,045.3,0.269,765.0,01.16,0.508
2016-09-09 01:19:00,1999E-3,5C000400,-0724,0824,12252,019.8,045.3,0.268,765.0,01.16,0.508
2016-09-09 01:20:00,1919E-3,5C000400,-0724,0824,12227,019.7,045.3,0.269,765.0,01.16,0.508
2016-09-09 01:21:00,1954E-3,5C000400,-0724,0825,12275,019.7,045.3,0.269,765.0,01.16,0.508
2016-09-09 01:22:00,1917E-3,5C000400,-0724,0823,12279,019.7,045.3,0.269,765.0,01.16,0.508
2016-09-09 01:23:00,1854E-3,5C000400,-0724,0824,12199,019.7,045.3,0.269,765.0,01.16,0.508
2016-09-09 01:24:00,1930E-3,5C000400,-0724,0823,12222,019.8,045.3,0.269,765.0,01.16,0.508
2016-09-09 01:25:00,1891E-3,5C000400,-0724,0825,12205,019.8,045.3,0.269,765.0,01.16,0.508
2016-09-09 01:26:00,1970E-3,5C000400,-0724,0824,12254,019.7,045.3,0.269,765.0,01.16,0.508
2016-09-09 01:27:00,2011E-3,5C000400,-0724,0825,12210,019.8,045.2,0.269,765.0,01.16,0.508
2016-09-09 01:28:00,1983E-3,5C000400,-0724,0825,12330,019.8,045.2,0.269,765.0,01.16,0.508
2016-09-09 01:29:00,1974E-3,5C000400,-0724,0824,12218,019.8,045.3,0.269,765.0,01.16,0.508
2016-09-09 01:30:00,1983E-3,5C000400,-0724,0824,12032,019.8,045.2,0.269,765.0,01.16,0.508
2016-09-09 01:31:00,2056E-3,5C000400,-0724,0824,12146,019.8,045.2,0.269,765.0,01.16,0.508
2016-09-09 01:32:00,1950E-3,5C000400,-0724,0824,12124,019.8,045.3,0.269,765.1,01.16,0.508
2016-09-09 01:33:00,2057E-3,5C000400,-0724,0824,12287,019.8,045.3,0.268,765.1,01.16,0.508
2016-09-09 01:34:00,1937E-3,5C000400,-0724,0824,12133,019.8,045.3,0.269,765.1,01.16,0.508
2016-09-09 01:35:00,2034E-3,5C000400,-0724,0823,12270,019.8,045.3,0.268,765.1,01.16,0.508
2016-09-09 01:36:00,2026E-3,5C000400,-0724,0824,12244,019.8,045.3,0.269,765.1,01.16,0.508
2016-09-09 01:37:00,1897E-3,5C000400,-0724,0824,12278,019.8,045.3,0.268,765.2,01.16,0.508
2016-09-09 01:38:00,1904E-3,5C000400,-0724,0825,12349,019.7,045.3,0.269,765.1,01.16,0.508
2016-09-09 01:39:00,1814E-3,5C000400,-0724,0824,12202,019.8,045.3,0.269,765.1,01.16,0.508
2016-09-09 01:40:00,1833E-3,5C000400,-0724,0824,12265,019.8,045.3,0.269,765.2,01.16,0.508
2016-09-09 01:41:00,2049E-3,5C000400,-0724,0823,12294,019.7,045.3,0.269,765.2,01.16,0.508
2016-09-09 01:42:00,2063E-3,5C000400,-0724,0824,12292,019.8,045.3,0.269,765.1,01.16,0.508
2016-09-09 01:43:00,1924E-3,5C000400,-0724,0825,12231,019.8,045.3,0.269,765.1,01.16,0.508
2016-09-09 01:44:00,1889E-3,5C000400,-0724,0824,12253,019.7,045.3,0.269,765.1,01.16,0.508
2016-09-09 01:45:00,2021E-3,5C000400,-0724,0825,12271,019.8,045.3,0.269,765.1,01.16,0.508
2016-09-09 01:46:00,1910E-3,5C000400,-0724,0825,12195,019.8,045.3,0.268,765.1,01.16,0.508
2016-09-09 01:47:00,1880E-3,5C000400,-0724,0825,12239,019.7,045.3,0.269,765.1,01.16,0.508
2016-09-09 01:48:00,1880E-3,5C000400,-0724,0825,12213,019.7,045.3,0.268,765.1,01.16,0.508
2016-09-09 01:49:00,1958E-3,5C000400,-0724,0824,12345,019.8,045.3,0.269,765.1,01.16,0.508
2016-09-09 01:50:00,1944E-3,5C000400,-0724,0824,12112,019.8,045.3,0.268,765.1,01.16,0.508
2016-09-09 01:51:00,2152E-3,5C000400,-0724,0824,12258,019.8,045.3,0.269,765.2,01.16,0.508
2016-09-09 01:52:00,2007E-3,5C000400,-0724,0823,12008,019.8,045.3,0.269,765.2,01.16,0.508
2016-09-09 01:53:00,1873E-3,5C000400,-0724,0824,12371,019.8,045.3,0.269,765.2,01.16,0.508
2016-09-09 01:54:00,1790E-3,5C000400,-0724,0825,12155,019.8,045.3,0.269,765.2,01.16,0.508
2016-09-09 01:55:00,1901E-3,5C000400,-0724,0825,12074,019.7,045.3,0.269,765.2,01.16,0.508
2016-09-09 01:56:00,1812E-3,5C000400,-0724,0825,12215,019.7,045.3,0.268,765.2,01.16,0.508
2016-09-09 01:57:00,1958E-3,5C000400,-0724,0825,12198,019.7,045.3,0.269,765.2,01.16,0.508
2016-09-09 01:58:00,1827E-3,5C000400,-0724,0824,12227,019.8,045.3,0.269,765.2,01.16,0.508
2016-09-09 01:59:00,2059E-3,5C000400,-0724,0825,12220,019.7,045.3,0.269,765.2,01.16,0.508
2016-09-09 02:00:00,1946E-3,5C000400,-0724,0825,12220,019.8,045.3,0.268,765.2,01.16,0.508
2016-09-09 02:01:00,1921E-3,5C000400,-0724,0824,12185,019.8,045.3,0.269,765.1,01.16,0.508
2016-09-09 02:02:00,1809E-3,5C000400,-0724,0825,12227,019.8,045.3,0.268,765.1,01.16,0.508
2016-09-09 02:03:00,1822E-3,5C000400,-0724,0825,12266,019.8,045.3,0.269,765.2,01.16,0.508
2016-09-09 02:04:00,2106E-3,5C000400,-0724,0824,12229,019.8,045.3,0.268,765.2,01.16,0.508
2016-09-09 02:05:00,1998E-3,5C000400,-0724,0824,12276,019.8,045.3,0.269,765.1,01.16,0.508
2016-09-09 02:06:00,2069E-3,5C000400,-0724,0824,12225,019.7,045.3,0.268,765.2,01.16,0.508
2016-09-09 02:07:00,1975E-3,5C000400,-0724,0825,12337,019.8,045.3,0.269,765.2,01.16,0.508
2016-09-09 02:08:00,2070E-3,5C000400,-0724,0824,12284,019.7,045.3,0.269,765.2,01.16,0.508
2016-09-09 02:09:00,1938E-3,5C000400,-0724,0824,12222,019.7,045.3,0.269,765.2,01.16,0.508
2016-09-09 02:10:00,1876E-3,5C000400,-0724,0823,12304,019.8,045.2,0.269,765.2,01.16,0.508
2016-09-09 02:11:00,2009E-3,5C000400,-0724,0824,12454,019.7,045.3,0.268,765.2,01.16,0.508
2016-09-09 02:12:00,2048E-3,5C000400,-0724,0823,12278,019.8,045.3,0.269,765.2,01.16,0.508
2016-09-09 02:13:00,1905E-3,5C000400,-0724,0824,12164,019.7,045.3,0.269,765.2,01.16,0.508
2016-09-09 02:14:00,1873E-3,5C000400,-0724,0824,12194,019.7,045.3,0.269,765.1,01.16,0.508
2016-09-09 02:15:00,1938E-3,5C000400,-0724,0825,12295,019.8,045.3,0.269,765.1,01.16,0.508
2016-09-09 02:16:00,1898E-3,5C000400,-0724,0824,12377,019.7,045.3,0.269,765.2,01.16,0.508
2016-09-09 02:17:00,1974E-3,5C000400,-0724,0824,12227,019.7,045.3,0.269,765.2,01.16,0.508
2016-09-09 02:18:00,2051E-3,5C000400,-0724,0824,12106,019.8,045.3,0.268,765.2,01.16,0.508
2016-09-09 02:19:00,1903E-3,5C000400,-0724,0824,12328,019.7,045.3,0.269,765.2,01.16,0.508
2016-09-09 02:20:00,1986E-3,5C000400,-0724,0825,12270,019.8,045.3,0.269,765.2,01.16,0.508
2016-09-09 02:21:00,1929E-3,5C000400,-0724,0824,12137,019.7,045.3,0.269,765.2,01.16,0.508
2016-09-09 02:22:00,1914E-3,5C000400,-0724,0823,12269,019.8,045.3,0.269,765.1,01.16,0.508
2016-09-09 02:23:00,1920E-3,5C000400,-0724,0824,12217,019.8,045.3,0.269,765.2,01.16,0.508
2016-09-09 02:24:00,1917E-3,5C000400,-0724,0824,12218,019.8,045.3,0.269,765.2,01.16,0.508
2016-09-09 02:25:00,1990E-3,5C000400,-0724,0824,12320,019.8,045.3,0.268,765.2,01.16,0.508
2016-09-09 02:26:00,1959E-3,5C000400,-0724,0824,12347,019.8,045.3,0.269,765.2,01.16,0.508
2016-09-09 02:27:00,1997E-3,5C000400,-0724,0823,12173,019.8,045.3,0.268,765.2,01.16,0.508
2016-09-09 02:28:00,1964E-3,5C000400,-0724,0824,12155,019.7,045.3,0.269,765.1,01.16,0.508
2016-09-09 02:29:00,1918E-3,5C000400,-0724,0824,12321,019.8,045.3,0.269,765.1,01.16,0.508
2016-09-09 02:30:00,1973E-3,5C000400,-0724,0824,12401,019.8,045.3,0.269,765.2,01.16,0.508
2016-09-09 02:31:00,2007E-3,5C000400,-0724,0824,12368,019.8,045.3,0.269,765.2,01.16,0.508
2016-09-09 02:32:00,1911E-3,5C000400,-0724,0823,12226,019.8,045.3,0.269,765.2,01.16,0.508
2016-09-09 02:33:00,1919E-3,5C000400,-0724,0824,12258,019.8,045.3,0.269,765.1,01.16,0.508
2016-09-09 02:34:00,2059E-3,5C000400,-0724,0825,12175,019.8,045.3,0.269,765.2,01.16,0.508
2016-09-09 02:35:00,2069E-3,5C000400,-0724,0824,12176,019.8,045.3,0.269,765.2,01.16,0.508
2016-09-09 02:36:00,2051E-3,5C000400,-0724,0824,12178,019.8,045.3,0.269,765.2,01.16,0.508
2016-09-09 02:37:00,1958E-3,5C000400,-0724,0825,12334,019.8,045.3,0.269,765.2,01.16,0.508
2016-09-09 02:38:00,1965E-3,5C000400,-0724,0824,12229,019.8,045.3,0.268,765.2,01.16,0.508
2016-09-09 02:39:00,1935E-3,5C000400,-0724,0824,12179,019.8,045.3,0.269,765.2,01.16,0.508
2016-09-09 02:40:00,1878E-3,5C000400,-0724,0825,12153,019.8,045.3,0.268,765.2,01.16,0.508
2016-09-09 02:41:00,1936E-3,5C000400,-0724,0824,12210,019.8,045.3,0.269,765.2,01.16,0.508
2016-09-09 02:42:00,2080E-3,5C000400,-0724,0824,12271,019.8,045.3,0.269,765.2,01.16,0.508
2016-09-09 02:43:00,1987E-3,5C000400,-0724,0824,12414,019.8,045.3,0.269,765.3,01.16,0.508
2016-09-09 02:44:00,2020E-3,5C000400,-0724,0824,12430,019.8,045.3,0.269,765.3,01.16,0.508
2016-09-09 02:45:00,1892E-3,5C000400,-0724,0824,12312,019.8,045.3,0.268,765.3,01.16,0.508
2016-09-09 02:46:00,2085E-3,5C000400,-0724,0824,12194,019.8,045.3,0.269,765.3,01.16,0.508
2016-09-09 02:47:00,1874E-3,5C000400,-0724,0824,12325,019.8,045.3,0.269,765.3,01.16,0.508
2016-09-09 02:48:00,1978E-3,5C000400,-0724,0824,12305,019.8,045.3,0.269,765.3,01.16,0.508
2016-09-09 02:49:00,1970E-3,5C000400,-0724,0824,12383,019.8,045.3,0.269,765.3,01.16,0.508
2016-09-09 02:50:00,1957E-3,5C000400,-0724,0824,12295,019.8,045.3,0.268,765.3,01.16,0.508
2016-09-09 02:51:00,1958E-3,5C000400,-0724,0824,12370,019.8,045.3,0.269,765.4,01.16,0.508
2016-09-09 02:52:00,1908E-3,5C000400,-0724,0825,12263,019.8,045.3,0.268,765.4,01.16,0.508
2016-09-09 02:53:00,1969E-3,5C000400,-0724,0824,12293,019.8,045.3,0.269,765.4,01.16,0.508
2016-09-09 02:54:00,1991E-3,5C000400,-0724,0824,12289,019.8,045.3,0.268,765.4,01.16,0.508
2016-09-09 02:55:00,2189E-3,5C000400,-0724,0823,12295,019.8,045.3,0.269,765.3,01.16,0.508
2016-09-09 02:56:00,1936E-3,5C000400,-0724,0824,12358,019.8,045.3,0.268,765.4,01.16,0.508
2016-09-09 02:57:00,2021E-3,5C000400,-0724,0824,12364,019.8,045.3,0.269,765.4,01.16,0.508
2016-09-09 02:58:00,2197E-3,5C000400,-0724,0823,12267,019.8,045.3,0.268,765.4,01.16,0.508
2016-09-09 02:59:00,2071E-3,5C000400,-0724,0823,12227,019.8,045.3,0.269,765.4,01.16,0.508
2016-09-09 03:00:00,1912E-3,5C000400,-0724,0823,12145,019.8,045.3,0.268,765.4,01.16,0.508
2016-09-09 03:01:00,2006E-3,5C000400,-0724,0823,12205,019.8,045.3,0.269,765.4,01.16,0.508
2016-09-09 03:02:00,1981E-3,5C000400,-0724,0823,12346,019.8,045.2,0.269,765.4,01.16,0.508
2016-09-09 03:03:00,1916E-3,5C000400,-0724,0824,12256,019.8,045.3,0.269,765.4,01.16,0.508
2016-09-09 03:04:00,1882E-3,5C000400,-0724,0824,12277,019.8,045.3,0.269,765.4,01.16,0.508
2016-09-09 03:05:00,1945E-3,5C000400,-0724,0824,12312,019.8,045.3,0.269,765.4,01.16,0.508
2016-09-09 03:06:00,1912E-3,5C000400,-0724,0824,12274,019.8,045.3,0.269,765.4,01.16,0.508
2016-09-09 03:07:00,2178E-3,5C000400,-0724,0824,12127,019.8,045.3,0.268,765.4,01.16,0.508
2016-09-09 03:08:00,1971E-3,5C000400,-0724,0824,12191,019.8,045.3,0.269,765.5,01.16,0.508
2016-09-09 03:09:00,1910E-3,5C000400,-0724,0824,12205,019.8,045.3,0.268,765.5,01.16,0.508
2016-09-09 03:10:00,2009E-3,5C000400,-0724,0823,12184,019.9,045.3,0.269,765.5,01.16,0.508
2016-09-09 03:11:00,1828E-3,5C000400,-0724,0825,12311,019.9,045.3,0.269,765.5,01.16,0.508
2016-09-09 03:12:00,1978E-3,5C000400,-0724,0824,12171,019.8,045.3,0.269,765.5,01.16,0.508
2016-09-09 03:13:00,1911E-3,5C000400,-0724,0823,12180,019.8,045.3,0.269,765.5,01.16,0.508
2016-09-09 03:14:00,1791E-3,5C000400,-0724,0824,12376,019.9,045.3,0.268,765.5,01.16,0.508
2016-09-09 03:15:00,1936E-3,5C000400,-0724,0823,12285,019.9,045.3,0.269,765.5,01.16,0.508
2016-09-09 03:16:00,1973E-3,5C000400,-0724,0824,12056,019.9,045.3,0.269,765.4,01.16,0.508
2016-09-09 03:17:00,1953E-3,5C000400,-0724,0825,12100,019.8,045.3,0.269,765.5,01.16,0.508
2016-09-09 03:18:00,1902E-3,5C000400,-0724,0824,12296,019.9,045.3,0.269,765.5,01.16,0.508
2016-09-09 03:19:00,1997E-3,5C000400,-0724,0824,12316,019.8,045.2,0.268,765.5,01.16,0.508
2016-09-09 03:20:00,2032E-3,5C000400,-0724,0824,12285,019.9,045.3,0.269,765.5,01.16,0.508
2016-09-09 03:21:00,1979E-3,5C000400,-0724,0824,12268,019.9,045.3,0.269,765.5,01.16,0.508
2016-09-09 03:22:00,2008E-3,5C000400,-0724,0823,12217,019.9,045.3,0.269,765.5,01.16,0.508
2016-09-09 03:23:00,2017E-3,5C000400,-0724,0823,12312,019.9,045.3,0.269,765.5,01.16,0.508
2016-09-09 03:24:00,1794E-3,5C000400,-0724,0824,12328,019.8,045.2,0.268,765.5,01.16,0.508
2016-09-09 03:25:00,1971E-3,5C000400,-0724,0823,12332,019.9,045.3,0.269,765.5,01.16,0.508
2016-09-09 03:26:00,1903E-3,5C000400,-0724,0824,12285,019.8,045.3,0.268,765.5,01.16,0.508
2016-09-09 03:27:00,2008E-3,5C000400,-0724,0823,12287,019.8,045.3,0.269,765.6,01.16,0.508
2016-09-09 03:28:00,1835E-3,5C000400,-0724,0825,12323,019.9,045.3,0.268,765.5,01.16,0.508
2016-09-09 03:29:00,1934E-3,5C000400,-0724,0824,12357,019.9,045.2,0.269,765.5,01.16,0.508
2016-09-09 03:30:00,1944E-3,5C000400,-0724,0824,12369,019.9,045.2,0.269,765.5,01.16,0.508
2016-09-09 03:31:00,1896E-3,5C000400,-0724,0824,12383,019.9,045.3,0.269,765.5,01.16,0.508
2016-09-09 03:32:00,1944E-3,5C000400,-0724,0824,12217,019.9,045.3,0.269,765.6,01.16,0.508
2016-09-09 03:33:00,2051E-3,5C000400,-0724,0824,12347,019.9,045.3,0.268,765.6,01.16,0.508
2016-09-09 03:34:00,2004E-3,5C000400,-0724,0824,12237,019.9,045.3,0.269,765.6,01.16,0.508
2016-09-09 03:35:00,1956E-3,5C000400,-0724,0823,12133,019.9,045.3,0.268,765.6,01.16,0.508
2016-09-09 03:36:00,1924E-3,5C000400,-0724,0823,12231,019.9,045.3,0.269,765.6,01.16,0.508
2016-09-09 03:37:00,2035E-3,5C000400,-0724,0824,12276,019.9,045.2,0.269,765.5,01.16,0.508
2016-09-09 03:38:00,1900E-3,5C000400,-0724,0823,12147,019.9,045.3,0.269,765.5,01.16,0.508
2016-09-09 03:39:00,1878E-3,5C000400,-0724,0823,12026,019.8,045.2,0.269,765.6,01.16,0.508
2016-09-09 03:40:00,1871E-3,5C000400,-0724,0824,12349,019.9,045.3,0.268,765.6,01.16,0.508
2016-09-09 03:41:00,1894E-3,5C000400,-0724,0824,12292,019.9,045.3,0.269,765.5,01.16,0.508
2016-09-09 03:42:00,1893E-3,5C000400,-0724,0824,12299,019.9,045.3,0.269,765.6,01.16,0.508
2016-09-09 03:43:00,1950E-3,5C000400,-0724,0824,12346,019.9,045.3,0.269,765.6,01.16,0.508
2016-09-09 03:44:00,2001E-3,5C000400,-0724,0824,12391,019.9,045.3,0.269,765.6,01.16,0.508
2016-09-09 03:45:00,1952E-3,5C000400,-0724,0823,12229,019.9,045.3,0.268,765.6,01.16,0.508
2016-09-09 03:46:00,2047E-3,5C000400,-0724,0824,12289,019.9,045.3,0.269,765.6,01.16,0.508
2016-09-09 03:47:00,1931E-3,5C000400,-0724,0824,11010,019.9,045.3,0.269,765.6,01.16,0.508
2016-09-09 03:48:00,1919E-3,5C000400,-0724,0824,12318,019.9,045.3,0.269,765.6,01.16,0.508
2016-09-09 03:49:00,2045E-3,5C000400,-0724,0824,12184,019.9,045.3,0.269,765.6,01.16,0.508
2016-09-09 03:50:00,2000E-3,5C000400,-0724,0823,12215,019.9,045.3,0.268,765.6,01.16,0.508
2016-09-09 03:51:00,1948E-3,5C000400,-0724,0824,12280,019.9,045.3,0.269,765.6,01.16,0.508
2016-09-09 03:52:00,1915E-3,5C000400,-0724,0824,12269,019.9,045.3,0.268,765.6,01.16,0.508
2016-09-09 03:53:00,2038E-3,5C000400,-0724,0824,12358,019.9,045.3,0.269,765.6,01.16,0.508
2016-09-09 03:54:00,1973E-3,5C000400,-0724,0824,12219,019.9,045.3,0.268,765.6,01.16,0.508
2016-09-09 03:55:00,1854E-3,5C000400,-0724,0824,12356,019.9,045.3,0.269,765.6,01.16,0.508
2016-09-09 03:56:00,1962E-3,5C000400,-0724,0824,12131,019.9,045.3,0.268,765.7,01.16,0.508
2016-09-09 03:57:00,1803E-3,5C000400,-0724,0824,12325,019.9,045.3,0.269,765.7,01.16,0.508
2016-09-09 03:58:00,2006E-3,5C000400,-0724,0824,12296,019.9,045.3,0.268,765.7,01.16,0.508
2016-09-09 03:59:00,2099E-3,5C000400,-0724,0824,12429,019.9,045.3,0.269,765.7,01.16,0.508
2016-09-09 04:00:00,1897E-3,5C000400,-0724,0824,12322,019.9,045.3,0.269,765.6,01.16,0.508
2016-09-09 04:01:00,2017E-3,5C000400,-0724,0825,12288,019.9,045.3,0.268,765.7,01.16,0.508
2016-09-09 04:02:00,2002E-3,5C000400,-0724,0825,12382,019.9,045.3,0.269,765.6,01.16,0.508
2016-09-09 04:03:00,1985E-3,5C000400,-0724,0823,12180,019.9,045.3,0.268,765.7,01.16,0.508
2016-09-09 04:04:00,1837E-3,5C000400,-0724,0824,12397,019.9,045.3,0.269,765.6,01.16,0.508
2016-09-09 04:05:00,1940E-3,5C000400,-0724,0823,12170,020.0,045.3,0.269,765.7,01.16,0.508
2016-09-09 04:06:00,1928E-3,5C000400,-0724,0824,12364,019.9,045.3,0.268,765.7,01.16,0.508
2016-09-09 04:07:00,1855E-3,5C000400,-0724,0825,12265,019.9,045.3,0.269,765.7,01.16,0.508
2016-09-09 04:08:00,2017E-3,5C000400,-0724,0824,12294,019.9,045.3,0.268,765.7,01.16,0.508
2016-09-09 04:09:00,2120E-3,5C000400,-0724,0824,12166,019.9,045.3,0.269,765.7,01.16,0.508
2016-09-09 04:10:00,1940E-3,5C000400,-0724,0824,12321,020.0,045.3,0.269,765.8,01.16,0.508
2016-09-09 04:11:00,1926E-3,5C000400,-0724,0823,12368,020.0,045.3,0.268,765.7,01.16,0.508
2016-09-09 04:12:00,1889E-3,5C000400,-0724,0823,12266,019.9,045.3,0.269,765.7,01.16,0.508
2016-09-09 04:13:00,2055E-3,5C000400,-0724,0824,12267,019.9,045.3,0.269,765.7,01.16,0.508
2016-09-09 04:14:00,1838E-3,5C000400,-0724,0825,12204,020.0,045.3,0.268,765.8,01.16,0.508
2016-09-09 04:15:00,1765E-3,5C000400,-0724,0826,12347,019.9,045.3,0.269,765.7,01.16,0.508
2016-09-09 04:16:00,1906E-3,5C000400,-0724,0824,12337,019.9,045.3,0.268,765.8,01.16,0.508
2016-09-09 04:17:00,2030E-3,5C000400,-0724,0824,12162,019.9,045.3,0.269,765.8,01.16,0.508
2016-09-09 04:18:00,1967E-3,5C000400,-0724,0824,12342,020.0,045.3,0.269,765.8,01.16,0.508
2016-09-09 04:19:00,1911E-3,5C000400,-0724,0824,12159,020.0,045.3,0.268,765.8,01.16,0.508
2016-09-09 04:20:00,1921E-3,5C000400,-0724,0825,12156,020.0,045.3,0.269,765.8,01.16,0.508